Stations météo

réclame
Mon MeteoGroup
Groningen Eelde, Pays-Bas (6280): Température de l'air & dewpoint: 20.02.2020 04:00:00 - 26.02.2020 04:00:00 (CET)Groningen Eelde, Pays-Bas (6280): Température de l'air 5cm: 20.02.2020 04:00:00 - 26.02.2020 04:00:00 (CET)Groningen Eelde, Pays-Bas (6280): Vitesse du vent & gusts: 20.02.2020 04:00:00 - 26.02.2020 04:00:00 (CET)Groningen Eelde, Pays-Bas (6280): Direction du vent: 20.02.2020 04:00:00 - 26.02.2020 04:00:00 (CET)Groningen Eelde, Pays-Bas (6280): reduced air pressure: 20.02.2020 04:00:00 - 26.02.2020 04:00:00 (CET)Groningen Eelde, Pays-Bas (6280): visibility: 20.02.2020 04:00:00 - 26.02.2020 04:00:00 (CET)Groningen Eelde, Pays-Bas (6280): Quantités de précipitations: 20.02.2020 04:00:00 - 26.02.2020 04:00:00 (CET)
Date & Time tt [°C] td [°C] tt 5cm [°C] ff [km/h] ff [knt] fx [km/h] fx [knt] dd ppp [hPa] vv [km] rr [mm]
26.02.2020 04:00:00 1,4 1,0 1,0 8 4 11 6 SSW 990,6 8 0,0
26.02.2020 03:00:00 2,4 2,0 2,1 8 4 18 10 S 990,8 10 0,5
26.02.2020 02:00:00 2,6 1,8 2,4 16 9 22 12 SW 991,2 3,0 0,8
26.02.2020 01:00:00 2,3 1,5 1,5 8 4 18 10 S 991,2 9 1,9
26.02.2020 00:00:00 3,4 1,5 3,0 24 13 36 19 WSW 991,5 10 0,1
25.02.2020 23:00:00 1,4 0,4 1,1 11 6 22 12 SW 991,9 10 0,0
25.02.2020 22:00:00 2,4 1,1 1,8 13 7 25 14 SW 992,4 10 0,0
25.02.2020 21:00:00 3,9 1,9 3,0 13 7 25 14 W 993,1 10 0,4
25.02.2020 20:00:00 2,1 0,6 1,8 11 6 22 12 WSW 993,6 10 0,0
25.02.2020 19:00:00 4,7 1,5 3,3 15 8 36 19 WSW 994,0 10 0,0
25.02.2020 18:00:00 4,8 1,5 3,7 18 10 36 19 W 994,0 10 0,0
25.02.2020 17:00:00 5,1 2,2 4,2 16 9 40 21 W 994,3 10 0,2
25.02.2020 16:00:00 5,9 2,2 5,6 28 15 54 29 WSW 994,5 10 0,0
25.02.2020 15:00:00 6,1 1,7 6,0 34 18 58 31 WSW 995,1 10 0,0
25.02.2020 14:00:00 7,3 2,1 7,0 29 16 65 35 W 995,4 10 0,2
25.02.2020 13:00:00 7,6 2,9 6,1 37 20 68 37 WSW 995,6 10 0,1
25.02.2020 12:00:00 7,2 2,6 7,6 41 22 54 29 WSW 995,5 10 0,0
25.02.2020 11:00:00 6,5 2,3 5,9 31 17 58 31 WSW 995,6 10 0,2
25.02.2020 10:00:00 4,6 2,4 4,2 31 17 50 27 W 995,8 6 0,6
25.02.2020 09:00:00 6,2 2,2 5,2 31 17 54 29 WSW 996,0 10 0,0
25.02.2020 08:00:00 5,9 2,4 5,3 28 15 54 29 WSW 996,1 10 0,0
25.02.2020 07:00:00 5,9 2,5 5,3 29 16 47 25 WSW 996,4 10 0,0
25.02.2020 06:00:00 6,1 2,2 5,2 29 16 54 29 WSW 997,0 10 0,0
25.02.2020 05:00:00 6,6 2,2 5,9 34 18 58 31 WSW 997,2 10 0,0
25.02.2020 04:00:00 6,1 2,1 5,1 31 17 50 27 WSW 997,4 10 0,0
25.02.2020 03:00:00 6,4 2,1 5,4 34 18 58 31 WSW 997,6 10 0,0
25.02.2020 02:00:00 6,6 2,1 5,5 29 16 58 31 W 997,9 10 0,0
25.02.2020 01:00:00 7,5 2,8 6,5 42 23 72 39 W 997,8 10 0,7
25.02.2020 00:00:00 10,2 7,7 9,6 41 22 58 31 WSW 996,8 10 0,0
24.02.2020 23:00:00 10,3 8,2 9,7 42 23 65 35 WSW 997,2 10 0,0
24.02.2020 22:00:00 10,1 8,3 9,5 41 22 65 35 WSW 997,7 10 0,0
24.02.2020 21:00:00 9,8 8,4 9,3 41 22 65 35 WSW 998,1 10 0,0
24.02.2020 20:00:00 9,8 8,2 9,2 39 21 58 31 WSW 998,6 10 0,0
24.02.2020 19:00:00 9,4 8,4 8,9 37 20 65 35 WSW 999,0 3,4 0,4
24.02.2020 18:00:00 9,2 8,3 8,6 35 19 54 29 WSW 999,4 6 2,8
24.02.2020 17:00:00 8,9 8,3 7,8 28 15 54 29 SW 1000,0 6 3,8
24.02.2020 16:00:00 6,7 6,1 6,1 24 13 36 19 S 1001,5 8 3,2
24.02.2020 15:00:00 4,9 4,4 4,7 21 11 36 19 SSE 1003,8 8 4,3
24.02.2020 14:00:00 3,8 3,1 3,6 18 10 40 21 SSE 1007,0 4,1 4,6
24.02.2020 13:00:00 3,6 2,3 3,5 21 11 32 18 SSE 1009,1 10 1,2
24.02.2020 12:00:00 3,9 2,2 3,8 15 8 40 21 SSE 1012,7 10 0,7
24.02.2020 11:00:00 4,7 2,4 4,4 22 12 36 19 S 1014,9 10 0,1
24.02.2020 10:00:00 4,6 2,5 4,3 15 8 22 12 S 1015,8 10 0,0
24.02.2020 09:00:00 4,2 2,8 3,8 15 8 22 12 S 1018,1 10 0,0
24.02.2020 08:00:00 3,9 2,7 3,3 13 7 18 10 SSW 1019,0 10 0,0
24.02.2020 07:00:00 3,6 2,7 3,0 9 5 14 8 SSW 1019,7 10 0,0
24.02.2020 06:00:00 3,4 2,6 2,7 11 6 18 10 SW 1020,3 10 0,0
24.02.2020 05:00:00 3,0 2,1 2,1 13 7 18 10 SW 1020,7 10 0,0
24.02.2020 04:00:00 3,5 2,1 2,7 15 8 22 12 WSW 1020,8 10 0,0
24.02.2020 03:00:00 3,3 1,8 2,3 15 8 25 14 WSW 1020,8 10 0,0
24.02.2020 02:00:00 5,0 2,4 4,1 15 8 25 14 W 1020,4 10 0,0
24.02.2020 01:00:00 5,2 2,2 4,2 16 9 25 14 W 1019,7 10 0,0
24.02.2020 00:00:00 5,3 2,0 4,0 16 9 25 14 W 1019,1 10 0,0
23.02.2020 23:00:00 4,9 1,6 3,8 16 9 36 19 W 1018,3 10 0,0
23.02.2020 22:00:00 5,5 1,1 4,3 22 12 40 21 W 1017,5 10 0,0
23.02.2020 21:00:00 5,5 0,8 4,3 26 14 47 25 WNW 1016,1 10 0,0
23.02.2020 20:00:00 5,6 1,7 4,5 34 18 54 29 W 1014,6 10 0,5
23.02.2020 19:00:00 5,8 3,5 5,1 24 13 40 21 W 1013,1 10 0,0
23.02.2020 18:00:00 5,4 3,8 4,8 18 10 47 25 WNW 1010,9 10 0,0
23.02.2020 17:00:00 5,6 4,2 5,4 39 21 61 33 NW 1009,0 6 0,5
23.02.2020 16:00:00 7,4 6,3 7,4 26 14 54 29 W 1006,3 6 0,1
23.02.2020 15:00:00 7,2 6,5 7,6 31 17 68 37 WNW 1004,3 10 0,0
23.02.2020 14:00:00 10,2 9,1 9,3 18 10 43 23 WSW 1001,6 10 1,5
23.02.2020 13:00:00 6,5 6,1 6,6 2 1 22 12 - 1002,2 2,6 2,0
23.02.2020 12:00:00 5,7 5,5 6,0 5 3 14 8 SE 1002,7 6 1,6
23.02.2020 11:00:00 5,3 5,0 5,3 8 4 14 8 SE 1004,3 10 2,6
23.02.2020 10:00:00 5,3 4,7 5,2 8 4 25 14 SSW 1006,6 9 2,8
23.02.2020 09:00:00 5,6 4,8 5,4 15 8 29 16 SW 1008,3 6 1,8
23.02.2020 08:00:00 5,9 5,0 5,6 21 11 32 18 WSW 1010,1 10 1,3
23.02.2020 07:00:00 6,0 4,8 5,5 18 10 32 18 SW 1011,3 10 1,2
23.02.2020 06:00:00 5,9 4,6 5,5 16 9 36 19 WSW 1013,3 8 1,1
23.02.2020 05:00:00 6,4 4,6 6,0 26 14 47 25 WSW 1014,2 8 0,3
23.02.2020 04:00:00 8,0 4,0 7,3 34 18 50 27 WSW 1014,6 10 0,0
23.02.2020 03:00:00 8,2 4,4 7,5 29 16 43 23 W 1015,3 10 0,0
23.02.2020 02:00:00 7,8 3,8 7,0 24 13 40 21 WSW 1015,3 10 0,0
23.02.2020 01:00:00 7,6 3,1 6,6 22 12 32 18 WSW 1016,1 10 0,0
23.02.2020 00:00:00 7,8 1,6 6,9 22 12 43 23 W 1016,0 10 0,0
22.02.2020 23:00:00 8,2 2,1 7,5 29 16 50 27 W 1015,8 10 0,0
22.02.2020 22:00:00 8,7 2,8 7,9 34 18 54 29 W 1015,7 10 0,0
22.02.2020 21:00:00 8,9 4,3 8,1 28 15 54 29 W 1015,0 10 0,0
22.02.2020 20:00:00 9,4 4,0 8,6 34 18 68 37 WSW 1014,9 10 0,0
22.02.2020 19:00:00 9,7 4,8 8,6 29 16 47 25 WSW 1014,3 10 0,0
22.02.2020 18:00:00 9,7 4,0 8,8 31 17 54 29 W 1013,8 10 0,0
22.02.2020 17:00:00 9,7 5,4 8,9 31 17 54 29 W 1013,1 10 0,0
22.02.2020 16:00:00 9,5 7,3 9,1 29 16 54 29 WSW 1012,7 10 0,0
22.02.2020 15:00:00 9,0 6,0 8,2 34 18 68 37 W 1011,8 10 3,0
22.02.2020 14:00:00 9,5 8,3 9,1 34 18 72 39 WSW 1011,0 3,8 1,8
22.02.2020 13:00:00 10,0 7,9 9,3 48 26 76 41 WSW 1010,6 6 0,0
22.02.2020 12:00:00 8,8 7,4 8,4 44 24 72 39 SW 1010,2 4,4 0,0
22.02.2020 11:00:00 8,5 6,5 7,9 46 25 68 37 SW 1010,6 4,4 0,0
22.02.2020 10:00:00 7,6 5,6 7,1 42 23 65 35 SW 1010,3 10 0,0
22.02.2020 09:00:00 7,0 5,3 6,5 44 24 61 33 SW 1010,8 10 0,9
22.02.2020 08:00:00 6,9 5,3 6,4 42 23 58 31 SW 1011,4 9 1,7
22.02.2020 07:00:00 7,1 5,3 6,6 41 22 65 35 SW 1011,6 10 0,5
22.02.2020 06:00:00 7,8 4,8 7,4 46 25 61 33 SW 1011,5 10 0,0
22.02.2020 05:00:00 8,1 4,7 7,7 41 22 65 35 SW 1012,3 10 0,0
22.02.2020 04:00:00 8,4 4,9 7,9 41 22 65 35 SW 1013,3 10 0,0
22.02.2020 03:00:00 8,8 4,9 8,4 50 27 68 37 SW 1014,2 10 0,0
22.02.2020 02:00:00 8,9 5,0 8,3 46 25 65 35 SW 1015,5 10 0,0
22.02.2020 01:00:00 8,4 5,0 7,9 37 20 61 33 SW 1016,4 10 0,0
22.02.2020 00:00:00 8,1 4,9 7,7 39 21 58 31 SW 1016,5 10 0,0
21.02.2020 23:00:00 8,1 4,9 7,5 37 20 54 29 SW 1017,3 10 0,0
21.02.2020 22:00:00 8,1 5,2 7,4 39 21 58 31 SW 1017,9 10 0,0
21.02.2020 21:00:00 7,7 5,6 7,3 39 21 54 29 SW 1018,5 10 0,0
21.02.2020 20:00:00 7,4 5,7 6,9 34 18 50 27 SW 1018,5 10 0,1
21.02.2020 19:00:00 7,6 5,2 7,1 37 20 61 33 SW 1019,1 10 0,0
21.02.2020 18:00:00 8,2 4,0 7,6 44 24 61 33 SW 1019,4 10 0,0
21.02.2020 17:00:00 7,9 4,3 7,3 39 21 61 33 SW 1019,6 10 0,0
21.02.2020 16:00:00 8,1 3,4 7,6 41 22 61 33 SW 1019,6 10 0,0
21.02.2020 15:00:00 8,2 3,9 7,9 39 21 58 31 SW 1020,0 10 0,0
21.02.2020 14:00:00 8,2 4,0 8,0 39 21 54 29 SW 1020,5 10 0,0
21.02.2020 13:00:00 8,4 3,7 8,3 35 19 50 27 WSW 1020,7 10 0,0
21.02.2020 12:00:00 8,0 3,8 8,0 28 15 43 23 SW 1020,8 10 0,0
21.02.2020 11:00:00 7,3 3,6 7,3 26 14 40 21 WSW 1021,1 10 0,0
21.02.2020 10:00:00 6,7 3,0 6,5 26 14 40 21 WSW 1020,7 10 0,0
21.02.2020 09:00:00 4,9 2,5 4,5 22 12 32 18 SW 1020,2 10 0,0
21.02.2020 08:00:00 4,5 1,9 3,2 18 10 32 18 WSW 1019,7 10 0,0
21.02.2020 07:00:00 4,9 2,0 4,0 21 11 36 19 WSW 1018,7 10 0,0
21.02.2020 06:00:00 5,7 2,1 5,2 24 13 47 25 W 1018,1 10 0,0
21.02.2020 05:00:00 5,8 1,9 5,3 26 14 43 23 W 1017,2 10 0,0
21.02.2020 04:00:00 5,7 1,8 5,1 26 14 40 21 W 1016,1 10 0,0
21.02.2020 03:00:00 5,7 1,3 4,9 28 15 43 23 W 1015,2 10 0,0
21.02.2020 02:00:00 5,5 1,3 4,8 22 12 43 23 W 1014,2 10 0,0
21.02.2020 01:00:00 5,2 0,9 4,0 26 14 47 25 W 1012,7 10 0,0
21.02.2020 00:00:00 5,0 2,1 4,1 24 13 40 21 W 1011,1 10 0,0
20.02.2020 23:00:00 5,0 1,9 4,3 22 12 50 27 W 1010,1 10 0,2
20.02.2020 22:00:00 4,9 3,0 4,6 21 11 54 29 W 1007,6 10 0,6
20.02.2020 21:00:00 5,5 3,6 5,1 28 15 50 27 WNW 1006,0 10 0,7
20.02.2020 20:00:00 6,4 5,1 5,9 28 15 61 33 W 1005,0 9 1,9
20.02.2020 19:00:00 8,1 6,6 7,6 31 17 50 27 SSW 1003,3 9 1,3
20.02.2020 18:00:00 8,4 6,0 7,8 31 17 47 25 SSW 1003,5 10 0,3
20.02.2020 17:00:00 9,0 5,8 8,5 34 18 58 31 SSW 1004,8 10 0,0
20.02.2020 16:00:00 9,3 5,8 8,7 35 19 58 31 SSW 1006,0 10 0,0
20.02.2020 15:00:00 9,7 5,9 9,4 39 21 58 31 SW 1006,9 10 0,0
20.02.2020 14:00:00 10,1 5,6 10,3 41 22 61 33 SSW 1008,0 10 0,0
20.02.2020 13:00:00 9,5 5,5 9,1 37 20 58 31 SSW 1008,9 10 0,0
20.02.2020 12:00:00 9,7 7,2 9,6 31 17 47 25 SSW 1009,8 10 0,0
20.02.2020 11:00:00 8,5 6,9 8,3 29 16 47 25 SSW 1010,4 10 0,0
20.02.2020 10:00:00 8,3 7,0 8,0 31 17 47 25 SW 1010,9 10 0,0
20.02.2020 09:00:00 7,8 6,9 7,5 28 15 43 23 SSW 1011,0 9 0,1
20.02.2020 08:00:00 7,7 6,8 7,2 26 14 40 21 SSW 1011,8 9 0,0
20.02.2020 07:00:00 7,4 6,7 7,1 26 14 43 23 SSW 1011,9 2,8 0,1
20.02.2020 06:00:00 7,2 6,4 6,8 22 12 36 19 SSW 1011,9 7 0,1
20.02.2020 05:00:00 6,6 6,0 6,3 24 13 36 19 SSW 1012,7 9 0,4
20.02.2020 04:00:00 6,2 5,5 5,9 24 13 36 19 SSW 1013,3 4,6 0,3

tt = Température de l'air
td = dewpoint
tt 5cm = Température de l'air 5cm
ff = Vitesse du vent
fx = gusts
dd = Direction du vent
ppp = reduced air pressure
vv = visibility
rr = Quantités de précipitations

stations d'obs. à proximité